Location: Unspecified
(0.0000°N, 0.0000°E)
Time: 08:43:12
(UTC+00:00)

Tiangong 2 - Pass Details

Date: 23 April 2017
Orbit: 391 x 396 km, 42.8° (Epoch: 26 June)

Event Time Altitude Azimuth Distance (km) Brightness Sun altitude
Rises 19:18:44 0° 304° (NW) 2,268 6.2 -19.6°
Reaches altitude 10° 19:20:53 10° 297° (WNW) 1,414 5.0 -20.1°
Maximum altitude 19:23:54 40° 225° (SW) 591 2.2 -20.9°
Enters shadow 19:24:08 39° 213° (SSW) 599 2.1 -20.9°
